Weather History for Molokai, HI

Change the Weather History Date:

Monday, September 2, 2013

  Actual Average Record
Temperature  
Mean Temperature 78 °F -  
Max Temperature 82 °F 85 °F 90 °F (1986)
Min Temperature 73 °F 71 °F 63 °F (1984)
Cooling Degree Days 12    
Growing Degree Days 28 (Base 50)    
Moisture  
Dew Point 68 °F    
Average Humidity 75    
Maximum Humidity 90    
Minimum Humidity 58    
Precipitation  
Precipitation 0.01 in - - ()
Sea Level Pressure  
Sea Level Pressure 30.02 in    
Wind  
Wind Speed 13 mph (NE)    
Max Wind Speed 20 mph    
Max Gust Speed 32 mph    
Visibility 10 miles    
Events Rain    
Averages and records for this station are not official NWS values.
T = Trace of Precipitation, MM = Missing Value Source: NWS Daily Summary

Daily Weather History Graph

Daily Weather History Graph

Search for Another Location

Airport:

Trip Planner

Search our weather history database for the weather conditions in past years. The results will help you decide how hot, cold, wet, or windy it might be!

Date:

Astronomy

Sep. 02, 2013 Rise Set
Actual Time 6:12 AM HST 6:43 PM HST
Civil Twilight 5:49 AM HST 7:05 PM HST
Nautical Twilight 5:23 AM HST 7:31 PM HST
Astronomical Twilight 4:56 AM HST 7:58 PM HST
Moon 3:51 AM HST (9/2) 4:54 PM HST (9/2)
Length of Visible Light 13h 15m
Length of Day
12h 30m
Waning Crescent, 7% of the Moon is Illuminated
Sep 2
Waning Crescent
Sep 5
New
Sep 12
First Quarter
Sep 19
Full
Sep 26
Last Quarter

Hourly Weather History & Observations

Time (HST) Temp. Heat Index Dew Point Humidity Pressure Visibility Wind Dir Wind Speed Gust Speed Precip Events Conditions
12:54 AM 73.9 °F - 69.1 °F 85% 30.03 in 10.0 mi NE 12.7 mph 19.6 mph N/A   Clear
1:54 AM 73.9 °F - 68.0 °F 82% 30.01 in 10.0 mi NE 11.5 mph 21.9 mph 0.00 in   Overcast
2:54 AM 73.9 °F - 68.0 °F 82% 30.00 in 10.0 mi NE 9.2 mph - 0.00 in   Clear
3:54 AM 73.0 °F - 70.0 °F 90% 29.99 in 10.0 mi NE 10.4 mph 17.3 mph 0.00 in   Partly Cloudy
4:54 AM 73.0 °F - 68.0 °F 84% 30.00 in 10.0 mi NE 11.5 mph 18.4 mph 0.00 in   Scattered Clouds
5:54 AM 73.0 °F - 69.1 °F 87% 30.01 in 10.0 mi ENE 10.4 mph 17.3 mph N/A   Scattered Clouds
6:54 AM 73.0 °F - 70.0 °F 90% 30.03 in 10.0 mi NE 11.5 mph 17.3 mph 0.01 in   Scattered Clouds
7:54 AM 75.0 °F - 70.0 °F 84% 30.05 in 10.0 mi NE 9.2 mph 17.3 mph 0.00 in Rain Light Rain
8:54 AM 79.0 °F - 68.0 °F 69% 30.05 in 10.0 mi NE 16.1 mph 21.9 mph 0.00 in   Partly Cloudy
9:54 AM 82.0 °F 84.1 °F 66.0 °F 58% 30.05 in 10.0 mi NE 17.3 mph 24.2 mph N/A   Scattered Clouds
10:54 AM 82.0 °F 84.1 °F 66.0 °F 58% 30.04 in 10.0 mi NE 17.3 mph 26.5 mph N/A   Scattered Clouds
11:54 AM 82.9 °F 86.5 °F 69.1 °F 63% 30.02 in 10.0 mi NE 15.0 mph 27.6 mph N/A   Partly Cloudy
12:54 PM 82.0 °F 85.5 °F 69.1 °F 65% 30.01 in 10.0 mi NE 13.8 mph 29.9 mph N/A   Partly Cloudy
1:54 PM 82.0 °F 84.9 °F 68.0 °F 62% 29.99 in 10.0 mi NNE 17.3 mph 32.2 mph N/A   Partly Cloudy
2:54 PM 82.0 °F 85.5 °F 69.1 °F 65% 29.98 in 10.0 mi NE 19.6 mph 29.9 mph N/A   Scattered Clouds
3:54 PM 80.1 °F 82.7 °F 68.0 °F 67% 29.97 in 10.0 mi NE 16.1 mph 27.6 mph N/A   Scattered Clouds
4:54 PM 79.0 °F - 66.9 °F 66% 29.98 in 10.0 mi NNE 13.8 mph 28.8 mph N/A   Partly Cloudy
5:54 PM 78.1 °F - 66.9 °F 68% 29.99 in 10.0 mi NE 11.5 mph 21.9 mph N/A   Partly Cloudy
6:54 PM 75.0 °F - 68.0 °F 79% 30.01 in 10.0 mi NE 15.0 mph 23.0 mph N/A   Clear
7:54 PM 73.9 °F - 68.0 °F 82% 30.03 in 10.0 mi NNE 12.7 mph - N/A   Clear
8:54 PM 73.9 °F - 66.9 °F 79% 30.04 in 10.0 mi NNE 12.7 mph 19.6 mph N/A   Clear
9:54 PM 73.9 °F - 66.9 °F 79% 30.06 in 10.0 mi NE 11.5 mph - N/A   Clear
10:54 PM 73.0 °F - 66.9 °F 81% 30.07 in 10.0 mi NNE 9.2 mph - N/A   Clear
11:54 PM 73.0 °F - 64.9 °F 76% 30.05 in 10.0 mi NNE 8.1 mph - N/A   Clear